Lid_Strength_Index
9 8 8 8 9 8 8 8 7 6 5 4 2 2 1 1 1 2 3 3 5 8 8 8 8 10 10 11 13 11 13 11 12 15 14 14 15 14 14 13 14 15 16 17 16 17 19 9 9 13 10 8 8 10
9 9 8 9 9 8 8 8 7 5 4 3 2 1 1 1 1 1 6 4 3 7 8 6 6 6 8 8 10 10 12 12 13 14 13 14 14 13 14 17 11 16 13 15 14 14 10 10 10 9 8 10 10 11
9 8 8 8 8 8 8 7 6 5 4 3 2 1 1 1 1 2 4 4 5 7 7 9 9 7 5 6 6 10 9 8 9 8 10 12 13 11 15 14 13 10 9 12 12 11 11 10 9 9 9 10 9 9
8 8 8 8 8 8 8 7 6 5 4 3 2 1 1 0 0 1 3 3 4 6 10 9 6 7 5 6 6 6 7 7 7 8 10 11 14 10 12 11 12 10 10 12 13 11 10 10 9 9 10 10 10 10
8 8 8 8 8 8 8 6 5 5 4 3 2 1 1 0 0 2 4 3 2 6 10 9 7 7 6 7 7 6 7 8 9 10 11 13 11 12 10 10 12 9 11 12 14 11 11 12 10 10 11 12 12 12
8 8 9 8 8 8 6 5 5 4 3 2 2 1 1 1 1 6 8 5 3 4 8 11 9 8 7 7 8 8 8 9 10 11 12 11 11 11 12 13 10 9 10 10 12 11 12 11 11 11 12 12 11 12
8 8 9 8 8 7 5 5 5 4 3 2 1 1 1 0 4 8 8 6 3 3 8 10 10 8 8 9 9 9 9 10 11 11 11 12 11 9 11 13 11 10 10 10 10 10 12 11 13 11 12 12 11 12
9 8 8 8 7 6 5 5 4 3 2 1 1 1 0 0 2 5 3 2 2 5 6 10 10 11 8 10 11 9 11 10 11 12 10 12 10 8 12 10 10 10 10 11 11 11 11 11 12 12 11 12 13 13
9 8 8 8 6 5 5 5 4 2 1 1 1 1 5 6 6 7 1 1 2 5 9 9 11 13 9 10 11 10 11 12 11 13 12 10 12 12 9 9 9 9 10 11 10 11 11 12 12 12 12 12 13 13
8 8 7 6 5 5 5 4 3 2 1 1 5 7 10 8 2 2 5 7 6 6 6 9 8 11 10 11 11 12 12 13 14 12 11 12 11 8 7 7 8 9 9 9 11 12 12 12 12 12 12 12 12 12
8 6 6 5 5 4 4 3 2 1 3 7 6 8 7 3 6 7 9 9 9 9 8 8 10 12 9 12 12 11 14 13 14 13 12 12 12 10 7 7 8 7 7 8 9 9 10 10 11 11 11 11 11 12
6 5 5 5 4 4 3 2 1 5 6 6 5 4 4 6 7 9 11 9 10 12 8 10 10 10 10 9 11 11 13 12 14 11 12 14 11 8 7 7 6 6 8 9 8 9 9 9 10 10 11 11 11 11
5 5 4 4 4 3 2 1 1 2 3 3 4 6 7 8 15 11 13 12 11 9 9 8 9 10 10 10 11 12 12 13 10 13 13 11 8 6 7 6 6 7 7 8 8 8 8 9 9 10 10 10 10 10
4 4 4 3 3 2 2 2 2 3 5 6 8 11 10 11 11 11 10 9 9 8 7 8 10 12 11 11 12 13 12 11 14 15 13 10 7 6 5 5 7 7 7 8 8 8 9 9 10 10 9 9 10 11
4 4 3 3 3 3 2 2 2 5 5 8 8 12 11 9 8 7 7 8 7 5 7 8 8 9 12 12 13 13 13 13 13 13 11 9 7 7 6 6 7 7 7 7 8 9 9 9 10 10 9 10 10 10
4 4 5 3 3 3 2 3 4 4 5 6 8 11 9 10 9 8 8 7 5 6 7 7 9 10 11 13 13 13 14 14 12 9 8 7 6 6 6 5 7 7 7 8 8 8 9 9 10 10 10 10 9 9
4 7 4 3 3 2 3 5 4 5 6 7 10 8 9 9 9 8 9 7 5 7 10 10 12 13 9 12 13 10 12 11 9 8 8 7 7 6 7 8 8 8 9 9 9 9 9 9 9 9 10 10 10 10
7 7 4 3 3 3 6 3 5 6 8 7 9 8 7 7 7 8 8 8 7 7 8 10 8 11 12 13 12 10 10 9 9 9 8 7 6 7 7 8 7 7 8 8 9 9 9 9 10 11 11 11 11 11
6 5 3 3 3 4 6 5 4 8 8 7 6 7 7 6 6 6 7 7 5 5 7 8 11 11 11 9 8 8 8 9 10 10 9 6 7 8 7 7 7 7 8 9 10 10 10 10 10 11 11 11 11 11
3 3 3 2 3 7 6 6 4 7 9 7 7 8 7 7 7 7 7 7 6 6 8 9 10 9 9 9 7 8 8 9 9 9 8 6 8 8 8 6 7 9 10 10 10 11 11 12 12 11 11 11 11 11
5 4 3 4 4 5 6 6 7 8 8 8 8 9 9 8 8 8 8 8 9 9 10 9 8 8 8 8 8 8 9 9 8 7 7 7 7 8 9 9 9 10 10 10 10 11 11 11 12 11 11 11 11 10
8 4 7 6 5 4 5 5 8 8 8 8 9 8 9 10 9 9 7 9 8 9 8 8 8 7 7 6 6 7 6 7 7 6 7 7 9 9 9 9 9 10 10 10 10 10 11 11 11 11 11 10 10 10
3 4 5 6 6 10 9 6 9 8 9 9 9 9 9 9 8 5 8 9 9 6 6 7 7 7 7 7 7 6 5 6 6 6 6 6 6 7 8 8 8 9 10 10 9 10 10 11 10 10 9 10 10 11
3 6 8 8 8 10 7 9 8 8 8 9 10 11 9 9 7 8 10 10 8 7 7 7 7 8 8 8 8 6 6 6 7 7 6 5 6 6 5 7 8 8 8 8 9 9 10 10 10 10 10 11 11 11
9 10 9 12 9 8 9 9 9 10 10 9 10 10 9 9 10 10 11 9 8 8 8 8 6 8 9 9 8 8 7 8 8 8 8 7 7 7 8 8 8 8 8 9 10 10 11 11 11 11 11 11 11 11
11 9 10 8 8 9 9 10 10 9 9 10 9 9 8 10 11 11 9 8 8 8 7 6 7 5 6 6 7 7 6 6 6 7 7 7 7 7 7 8 9 9 8 8 9 10 10 10 11 11 11 11 12 11
11 10 8 6 6 8 9 8 8 9 10 11 9 10 10 11 12 9 6 6 7 6 6 5 4 5 5 4 4 4 3 5 4 4 4 5 5 6 6 7 7 7 8 8 8 9 10 10 10 10 11 11 11 11
8 8 10 9 9 9 9 9 9 9 9 8 9 10 11 11 10 7 6 4 4 5 6 5 5 5 4 4 3 3 4 4 6 6 6 6 6 6 6 6 7 9 7 7 8 8 9 9 10 10 10 11 11 11
9 7 7 9 9 9 9 9 9 7 6 7 9 9 8 6 5 5 4 4 3 4 5 6 5 4 3 3 3 4 5 5 5 6 6 8 8 8 7 7 8 7 8 9 11 10 9 9 9 9 9 10 10 11
8 7 8 8 9 9 7 7 8 5 4 5 5 5 5 5 4 4 4 3 4 5 5 6 6 5 4 4 4 4 4 4 5 5 7 7 7 7 7 7 8 8 9 9 10 11 12 10 11 10 10 11 11 12
7 7 8 8 9 7 6 6 5 5 5 5 5 6 7 6 4 3 3 4 4 4 5 5 4 3 3 4 4 5 5 5 6 5 5 6 6 7 7 7 8 8 9 9 10 10 10 10 10 11 11 11 12 12
8 9 10 10 11 8 7 8 8 8 8 8 7 6 6 6 7 6 4 4 4 6 7 5 4 3 2 2 3 3 8 5 6 6 5 6 6 6 6 7 7 7 8 9 9 9 9 10 11 11 11 11 11 11
7 7 7 8 10 9 7 7 9 11 10 11 10 9 8 7 8 5 3 4 5 5 4 6 6 6 3 2 2 3 6 5 7 10 10 9 9 8 7 7 7 7 8 9 9 9 9 10 11 11 12 12 12 12